Location: Balaclava NSW 2575, Australia
(34.4510°S, 150.4953°E)
Time: 21:51:24
(UTC+10:00)

XW-2C - Pass Details

Date: 03 August 2021
Orbit: 505 x 524 km, 97.5° (Epoch: 26 September)

Event Time Altitude Azimuth Distance (km) Brightness Sun altitude
Rises 04:13:51 0° 51° (NE) 2,658 ? -32.3°
Reaches altitude 10° 04:16:37 10° 74° (ENE) 1,779 ? -31.8°
Maximum altitude 04:18:57 16° 111° (ESE) 1,461 ? -31.3°
Drops below altitude 10° 04:21:17 10° 148° (SSE) 1,792 ? -30.8°
Enters shadow 04:21:22 10° 149° (SSE) 1,814 ? -30.8°
